This demonstration page uses our WeatherBlox Daily Observations layout. Learn more.

Left ArrowRight Arrow

Hourly Observations for September 19, 2021

Temp ( °F °C ) Dew Point ( °F °C ) Humidity (%) Winds ( mph kmh ) Pressure ( in mb ) Visibility ( mi km ) Precip ( " mm )
12:15 am 00:15 Clear 66 19 66 19 100 100 NE 7 11 30.12 1020 10 16 N/A
12:35 am 00:35 Clear 64 18 64 18 100 100 NE 5 7 30.12 1020 10 16 N/A
12:55 am 00:55 Clear 64 18 64 18 100 100 N N/A 30.13 1020 10 16 N/A
1:35 am 01:35 Clear 64 18 64 18 100 100 N N/A 30.12 1020 10 16 N/A
1:55 am 01:55 Clear 66 19 66 19 100 100 N N/A 30.12 1020 10 16 N/A
2:15 am 02:15 Clear 64 18 64 18 100 100 N N/A 30.12 1020 10 16 N/A
2:35 am 02:35 Clear 64 18 64 18 100 100 ESE 3 6 30.12 1020 10 16 N/A
2:55 am 02:55 Clear 64 18 64 18 100 100 E 3 6 30.12 1020 10 16 N/A
3:15 am 03:15 Clear 64 18 64 18 100 100 E 3 6 30.12 1020 10 16 N/A
3:35 am 03:35 Clear 64 18 64 18 100 100 E 5 7 30.12 1020 10 16 N/A
3:55 am 03:55 Clear 64 18 64 18 100 100 N N/A 30.12 1020 10 16 N/A
4:15 am 04:15 Clear 64 18 64 18 100 100 N N/A 30.11 1020 10 16 N/A
4:35 am 04:35 Clear 64 18 64 18 100 100 N N/A 30.11 1020 10 16 N/A
4:55 am 04:55 Clear 64 18 64 18 100 100 N N/A 30.12 1020 10 16 N/A
5:15 am 05:15 Clear 61 16 61 16 100 100 N N/A 30.13 1020 10 16 N/A
5:35 am 05:35 Clear 59 15 59 15 100 100 N N/A 30.13 1020 10 16 N/A
5:55 am 05:55 Clear 59 15 59 15 100 100 N N/A 30.13 1020 5 8 N/A
6:15 am 06:15 Clear 59 15 59 15 100 100 N N/A 30.13 1020 10 16 N/A
6:35 am 06:35 Clear 61 16 61 16 100 100 NNE 3 6 30.13 1020 10 16 N/A
6:55 am 06:55 Clear 59 15 59 15 100 100 NNE 5 7 30.13 1020 10 16 N/A
7:15 am 07:15 Clear 59 15 59 15 100 100 N N/A 30.14 1021 7 11 N/A
7:35 am 07:35 Mostly Cloudy 59 15 59 15 100 100 N N/A 30.14 1021 1 2 N/A
7:55 am 07:55 Sunny 59 15 59 15 100 100 N N/A 30.15 1021 3 5 N/A
8:15 am 08:15 Sunny 61 16 61 16 100 100 N N/A 30.15 1021 10 16 N/A
8:35 am 08:35 Sunny 64 18 64 18 100 100 N N/A 30.14 1021 10 16 N/A
8:55 am 08:55 Sunny 66 19 66 19 100 100 N N/A 30.14 1021 10 16 N/A
9:15 am 09:15 Sunny 68 20 68 20 100 100 N N/A 30.14 1021 10 16 N/A
9:35 am 09:35 Sunny 72 22 70 21 94 94 ESE 3 6 30.13 1020 5 8 N/A
9:55 am 09:55 Sunny 73 23 72 22 94 94 N N/A 30.13 1020 10 16 N/A
10:15 am 10:15 Sunny 75 24 70 21 83 83 SE 3 6 30.13 1020 10 16 N/A
10:35 am 10:35 Sunny 79 26 70 21 74 74 SSE 5 7 30.12 1020 10 16 N/A
10:55 am 10:55 Sunny 79 26 70 21 74 74 NE 5 7 30.12 1020 10 16 N/A
11:15 am 11:15 Sunny 81 27 70 21 70 70 SE 3 6 30.12 1020 10 16 N/A
11:35 am 11:35 Sunny 82 28 70 21 66 66 SSE 5 7 30.11 1020 10 16 N/A
11:55 am 11:55 Sunny 82 28 70 21 66 66 S 9 15 30.11 1020 10 16 N/A
12:15 pm 12:15 Sunny 82 28 70 21 66 66 SE 7 11 30.11 1020 10 16 N/A
12:35 pm 12:35 Sunny 84 29 70 21 62 62 SSW 6 9 30.10 1019 10 16 N/A
12:55 pm 12:55 Partly Cloudy 86 30 68 20 55 55 ESE 6 9 30.09 1019 10 16 N/A
1:15 pm 13:15 Mostly Cloudy 82 28 68 20 62 62 SSE 12 19 30.09 1019 10 16 N/A
1:35 pm 13:35 Partly Cloudy 84 29 68 20 58 58 ESE 9 15 30.08 1019 10 16 N/A
1:55 pm 13:55 Sunny 86 30 68 20 55 55 SSW 5 7 30.07 1018 10 16 N/A
2:15 pm 14:15 Sunny 86 30 66 19 52 52 ESE 8 13 30.07 1018 10 16 N/A
2:35 pm 14:35 Sunny 84 29 64 18 51 51 SE 7 11 30.06 1018 10 16 N/A
2:55 pm 14:55 Partly Cloudy 84 29 66 19 55 55 SE 6 9 30.05 1018 10 16 N/A
3:15 pm 15:15 Partly Cloudy 86 30 66 19 52 52 SE 6 9 30.04 1017 10 16 N/A
3:35 pm 15:35 Mostly Cloudy 88 31 64 18 46 46 ESE 13 20 30.04 1017 10 16 N/A
3:55 pm 15:55 Partly Cloudy 86 30 63 17 46 46 E 10 17 30.03 1017 10 16 N/A
4:15 pm 16:15 Sunny 86 30 63 17 46 46 ESE 12 19 30.02 1017 10 16 N/A
4:35 pm 16:35 Sunny 84 29 64 18 51 51 ESE 10 17 30.02 1017 10 16 N/A
4:55 pm 16:55 Sunny 84 29 64 18 51 51 ESE 12 19 30.02 1017 10 16 N/A
5:15 pm 17:15 Sunny 82 28 63 17 51 51 ESE 9 15 30.01 1016 10 16 N/A
5:35 pm 17:35 Sunny 82 28 63 17 51 51 ESE 12 19 30.01 1016 10 16 N/A
5:55 pm 17:55 Sunny 81 27 63 17 54 54 ESE 7 11 30.02 1016 10 16 N/A
6:15 pm 18:15 Sunny 81 27 64 18 58 58 ESE 6 9 30.03 1017 10 16 N/A
6:35 pm 18:35 Sunny 81 27 64 18 58 58 SE 3 6 30.03 1017 10 16 N/A
6:55 pm 18:55 Sunny 79 26 66 19 65 65 N N/A 30.03 1017 10 16 N/A
7:15 pm 19:15 Sunny 77 25 66 19 69 69 ESE 3 6 30.03 1017 10 16 N/A
7:35 pm 19:35 Sunny 77 25 68 20 74 74 N N/A 30.03 1017 10 16 N/A
7:55 pm 19:55 Clear 77 25 66 19 69 69 N N/A 30.02 1017 10 16 N/A
8:15 pm 20:15 Clear 75 24 68 20 78 78 N N/A 30.03 1017 10 16 N/A

Powered by AerisWeather